This is the latest recevied weather packets stored in our database for station/object K5FEP. If no packets are shown the sender has not sent any weather packets the latest 10 day(s).
| Time | Temp. | Humidity | Pressure | Rain* | Wind** | Luminosity | Snow |
|---|---|---|---|---|---|---|---|
| 1777938119 | 22.22° C | 43% | 1011.7 hPa | 0 mm | - | 19 W/m² | - |
| 1777937815 | 22.78° C | 41% | 1011.5 hPa | 0 mm | - | 27 W/m² | - |
| 1777937511 | 23.33° C | 40% | 1011.3 hPa | 0 mm | - | 29 W/m² | - |
| 1777937209 | 23.33° C | 39% | 1011.6 hPa | 0 mm | - | 27 W/m² | - |
| 1777936905 | 23.89° C | 37% | 1011.7 hPa | 0 mm | - | 30 W/m² | - |
| 1777936602 | 24.44° C | 35% | 1011.3 hPa | 0 mm | - | 35 W/m² | - |
| 1777936298 | 24.44° C | 34% | 1011.4 hPa | 0 mm | - | 44 W/m² | - |
| 1777935995 | 25° C | 34% | 1011.4 hPa | 0 mm | - | 50 W/m² | - |
| 1777935693 | 25° C | 34% | 1011.5 hPa | 0 mm | - | 57 W/m² | - |
| 1777935392 | 25° C | 33% | 1011.5 hPa | 0 mm | - | 65 W/m² | - |
| 1777935087 | 25.56° C | 33% | 1011.5 hPa | 0 mm | - | 90 W/m² | - |
| 1777934784 | 25.56° C | 33% | 1011.6 hPa | 0 mm | - | 114 W/m² | - |
| 1777934481 | 25.56° C | 34% | 1011.7 hPa | 0 mm | - | 166 W/m² | - |
| 1777934178 | 25.56° C | 33% | 1011.6 hPa | 0 mm | - | 215 W/m² | - |
| 1777933874 | 25° C | 34% | 1011.7 hPa | 0 mm | - | 251 W/m² | - |
| 1777933571 | 25° C | 35% | 1011.7 hPa | 0 mm | - | 187 W/m² | - |
| 1777933268 | 24.44° C | 34% | 1011.6 hPa | 0 mm | - | 137 W/m² | - |
| 1777932965 | 24.44° C | 33% | 1011.7 hPa | 0 mm | - | 117 W/m² | - |
| 1777932662 | 25° C | 34% | 1011.7 hPa | 0 mm | - | 113 W/m² | - |
| 1777932358 | 25° C | 33% | 1011.9 hPa | 0 mm | - | 109 W/m² | - |
| 1777932055 | 25.56° C | 33% | 1011.7 hPa | 0 mm | - | 156 W/m² | - |
| 1777931752 | 26.11° C | 32% | 1011.8 hPa | 0 mm | - | 213 W/m² | - |
| 1777931450 | 26.11° C | 31% | 1012 hPa | 0 mm | - | 316 W/m² | - |
| 1777931145 | 26.11° C | 32% | 1011.8 hPa | 0 mm | - | 323 W/m² | - |
| 1777930842 | 26.11° C | 30% | 1011.7 hPa | 0 mm | - | 340 W/m² | - |
* Rain latest hour (hover to see other rain measurements)
** Current wind speed in m/s (hover to see current wind gust speed)